Time,TemperatureF,DewpointF,PressureIn,WindDirection,WindDirectionDegrees,WindSpeedMPH,WindSpeedGustMPH,Humidity,HourlyPrecipIn,Conditions,Clouds,dailyrainin,SoftwareType,DateUTC
2013-03-08 00:02:00,57.0,53.0,30.17,ENE,64,0.0,0.0,88,0.00,,,0.00,,2013-03-08 05:02:00,
2013-03-08 00:12:00,57.0,53.0,30.17,ENE,64,0.0,0.0,88,0.00,,,0.00,,2013-03-08 05:12:00,
2013-03-08 00:22:00,57.0,53.0,30.17,ENE,64,0.0,0.0,88,0.00,,,0.00,,2013-03-08 05:22:00,
2013-03-08 00:32:00,57.0,54.0,30.17,ENE,64,0.0,0.0,89,0.00,,,0.00,,2013-03-08 05:32:00,
2013-03-08 00:42:00,57.0,54.0,30.17,ENE,64,0.0,0.0,89,0.00,,,0.00,,2013-03-08 05:42:00,
2013-03-08 00:52:00,56.0,53.0,30.17,ENE,64,0.0,0.0,89,0.00,,,0.00,,2013-03-08 05:52:00,
2013-03-08 01:01:00,56.0,53.0,30.17,ENE,64,0.0,0.0,89,0.00,,,0.00,,2013-03-08 06:01:00,
2013-03-08 01:11:00,56.0,53.0,30.17,ENE,64,0.0,0.0,89,0.00,,,0.00,,2013-03-08 06:11:00,
2013-03-08 01:22:00,56.0,53.0,30.16,ENE,64,0.0,0.0,89,0.00,,,0.00,,2013-03-08 06:22:00,
2013-03-08 01:32:00,56.0,53.0,30.16,ENE,64,0.0,0.0,89,0.00,,,0.00,,2013-03-08 06:32:00,
2013-03-08 01:42:00,56.0,53.0,30.16,ENE,64,0.0,0.0,89,0.00,,,0.00,,2013-03-08 06:42:00,
2013-03-08 01:52:00,56.0,53.0,30.16,ENE,64,0.0,0.0,89,0.00,,,0.00,,2013-03-08 06:52:00,
2013-03-08 02:01:00,56.0,53.0,30.16,ENE,64,0.0,0.0,89,0.00,,,0.00,,2013-03-08 07:01:00,
2013-03-08 02:11:00,56.0,53.0,30.16,ENE,64,0.0,0.0,89,0.00,,,0.00,,2013-03-08 07:11:00,
2013-03-08 02:22:00,56.0,53.0,30.16,ENE,64,0.0,0.0,89,0.00,,,0.00,,2013-03-08 07:22:00,
2013-03-08 02:32:00,56.0,53.0,30.16,ENE,64,0.0,0.0,89,0.00,,,0.00,,2013-03-08 07:32:00,
2013-03-08 02:42:00,56.0,53.0,30.16,ENE,64,0.0,0.0,89,0.00,,,0.00,,2013-03-08 07:42:00,
2013-03-08 08:32:00,60.0,53.0,30.20,West,274,0.0,1.0,79,0.00,,,0.00,,2013-03-08 13:32:00,
2013-03-08 08:42:00,60.0,53.0,30.20,West,274,0.0,1.0,79,0.00,,,0.00,,2013-03-08 13:42:00,
2013-03-08 08:52:00,61.0,53.0,30.19,West,274,0.0,1.0,76,0.00,,,0.00,,2013-03-08 13:52:00,
2013-03-08 09:03:00,63.0,53.0,30.20,SW,223,0.0,1.0,71,0.00,,,0.00,,2013-03-08 14:03:00,
2013-03-08 09:12:00,63.0,53.0,30.20,SW,223,0.0,1.0,71,0.00,,,0.00,,2013-03-08 14:12:00,
2013-03-08 09:22:00,64.0,54.0,30.20,SW,225,0.0,1.0,69,0.00,,,0.00,,2013-03-08 14:22:00,
2013-03-08 09:32:00,65.0,53.0,30.20,NW,314,0.0,1.0,64,0.00,,,0.00,,2013-03-08 14:32:00,
2013-03-08 09:42:00,65.0,53.0,30.20,NW,314,0.0,1.0,64,0.00,,,0.00,,2013-03-08 14:42:00,
2013-03-08 09:53:00,66.0,51.0,30.21,North,360,0.0,1.0,59,0.00,,,0.00,,2013-03-08 14:53:00,
2013-03-08 10:03:00,68.0,51.0,30.21,North,5,0.0,1.0,54,0.00,,,0.00,,2013-03-08 15:03:00,
2013-03-08 10:12:00,68.0,51.0,30.21,North,5,0.0,1.0,55,0.00,,,0.00,,2013-03-08 15:12:00,
2013-03-08 10:22:00,68.0,51.0,30.21,North,5,0.0,1.0,55,0.00,,,0.00,,2013-03-08 15:22:00,
2013-03-08 10:32:00,69.0,50.0,30.21,NNW,334,0.0,4.0,51,0.00,,,0.00,,2013-03-08 15:32:00,
2013-03-08 10:42:00,69.0,50.0,30.21,NNW,334,0.0,4.0,51,0.00,,,0.00,,2013-03-08 15:42:00,
2013-03-08 10:53:00,70.0,50.0,30.21,NNW,333,0.0,1.0,49,0.00,,,0.00,,2013-03-08 15:53:00,
2013-03-08 11:01:00,70.0,48.0,30.20,NW,319,0.0,1.0,46,0.00,,,0.00,,2013-03-08 16:01:00,
2013-03-08 11:11:00,70.0,48.0,30.20,NW,319,0.0,1.0,46,0.00,,,0.00,,2013-03-08 16:11:00,
2013-03-08 11:22:00,71.0,48.0,30.19,NW,321,0.0,1.0,44,0.00,,,0.00,,2013-03-08 16:22:00,
2013-03-08 11:32:00,71.0,48.0,30.19,NW,321,0.0,1.0,44,0.00,,,0.00,,2013-03-08 16:32:00,
2013-03-08 11:42:00,71.0,48.0,30.19,NW,321,0.0,1.0,44,0.00,,,0.00,,2013-03-08 16:42:00,
2013-03-08 11:52:00,72.0,50.0,30.19,NW,321,0.0,1.0,46,0.00,,,0.00,,2013-03-08 16:52:00,
2013-03-08 12:03:00,72.0,52.0,30.19,NNE,19,0.0,1.0,49,0.00,,,0.00,,2013-03-08 17:03:00,
2013-03-08 12:11:00,72.0,52.0,30.19,NNE,19,0.0,1.0,49,0.00,,,0.00,,2013-03-08 17:11:00,
2013-03-08 12:21:00,71.0,52.0,30.18,ENE,57,0.0,6.0,51,0.00,,,0.00,,2013-03-08 17:21:00,
2013-03-08 12:32:00,72.0,52.0,30.17,NNE,31,1.0,8.0,50,0.00,,,0.00,,2013-03-08 17:32:00,
2013-03-08 12:42:00,72.0,52.0,30.17,NNE,31,1.0,8.0,50,0.00,,,0.00,,2013-03-08 17:42:00,
2013-03-08 12:52:00,73.0,52.0,30.16,ENE,59,1.0,6.0,48,0.00,,,0.00,,2013-03-08 17:52:00,
2013-03-08 13:02:00,72.0,52.0,30.16,ENE,58,1.0,6.0,49,0.00,,,0.00,,2013-03-08 18:02:00,
2013-03-08 13:11:00,72.0,52.0,30.16,ENE,58,1.0,6.0,49,0.00,,,0.00,,2013-03-08 18:11:00,
2013-03-08 13:22:00,72.0,52.0,30.15,NE,56,1.0,9.0,50,0.00,,,0.00,,2013-03-08 18:22:00,
2013-03-08 13:32:00,72.0,52.0,30.14,ENE,57,1.0,6.0,50,0.00,,,0.00,,2013-03-08 18:32:00,
2013-03-08 13:42:00,72.0,52.0,30.14,ENE,57,1.0,6.0,50,0.00,,,0.00,,2013-03-08 18:42:00,
2013-03-08 13:52:00,72.0,53.0,30.14,ENE,57,1.0,6.0,52,0.00,,,0.00,,2013-03-08 18:52:00,
2013-03-08 14:01:00,72.0,52.0,30.14,ENE,62,1.0,7.0,50,0.00,,,0.00,,2013-03-08 19:01:00,
2013-03-08 14:11:00,72.0,52.0,30.14,ENE,62,1.0,7.0,50,0.00,,,0.00,,2013-03-08 19:11:00,
2013-03-08 14:22:00,72.0,53.0,30.14,ENE,57,0.0,6.0,52,0.00,,,0.00,,2013-03-08 19:22:00,
2013-03-08 14:32:00,72.0,54.0,30.13,NE,51,1.0,7.0,53,0.00,,,0.00,,2013-03-08 19:32:00,
2013-03-08 14:42:00,72.0,54.0,30.13,NE,51,1.0,7.0,53,0.00,,,0.00,,2013-03-08 19:42:00,
2013-03-08 14:52:00,72.0,53.0,30.14,NE,53,1.0,5.0,52,0.00,,,0.00,,2013-03-08 19:52:00,
2013-03-08 15:01:00,72.0,54.0,30.13,NE,55,0.0,4.0,53,0.00,,,0.00,,2013-03-08 20:01:00,
2013-03-08 15:11:00,72.0,54.0,30.13,NE,55,0.0,4.0,53,0.00,,,0.00,,2013-03-08 20:11:00,
2013-03-08 15:22:00,72.0,53.0,30.12,ENE,59,1.0,6.0,52,0.00,,,0.00,,2013-03-08 20:22:00,
2013-03-08 15:32:00,72.0,54.0,30.12,ENE,61,1.0,5.0,54,0.00,,,0.00,,2013-03-08 20:32:00,
2013-03-08 15:42:00,72.0,54.0,30.12,ENE,61,1.0,5.0,54,0.00,,,0.00,,2013-03-08 20:42:00,
2013-03-08 15:53:00,72.0,54.0,30.11,ENE,64,2.0,8.0,54,0.00,,,0.00,,2013-03-08 20:53:00,
2013-03-08 16:02:00,72.0,54.0,30.11,ENE,57,1.0,8.0,54,0.00,,,0.00,,2013-03-08 21:02:00,
2013-03-08 16:11:00,72.0,54.0,30.11,ENE,57,1.0,8.0,54,0.00,,,0.00,,2013-03-08 21:11:00,
2013-03-08 16:22:00,72.0,54.0,30.11,ENE,65,1.0,5.0,54,0.00,,,0.00,,2013-03-08 21:22:00,
2013-03-08 16:32:00,71.0,54.0,30.11,NE,55,0.0,4.0,56,0.00,,,0.00,,2013-03-08 21:32:00,
2013-03-08 16:42:00,71.0,54.0,30.11,NE,55,0.0,4.0,56,0.00,,,0.00,,2013-03-08 21:42:00,
2013-03-08 16:52:00,71.0,54.0,30.11,ENE,63,0.0,5.0,55,0.00,,,0.00,,2013-03-08 21:52:00,
2013-03-08 17:01:00,71.0,54.0,30.12,ENE,63,0.0,4.0,56,0.00,,,0.00,,2013-03-08 22:01:00,
2013-03-08 17:11:00,71.0,54.0,30.12,ENE,63,0.0,4.0,56,0.00,,,0.00,,2013-03-08 22:11:00,
2013-03-08 17:22:00,70.0,53.0,30.12,ENE,64,0.0,2.0,55,0.00,,,0.00,,2013-03-08 22:22:00,
2013-03-08 17:32:00,70.0,54.0,30.12,ENE,64,0.0,4.0,56,0.00,,,0.00,,2013-03-08 22:32:00,
2013-03-08 17:42:00,70.0,54.0,30.12,ENE,64,0.0,4.0,56,0.00,,,0.00,,2013-03-08 22:42:00,
2013-03-08 17:53:00,70.0,55.0,30.12,ENE,65,0.0,4.0,58,0.00,,,0.00,,2013-03-08 22:53:00,
2013-03-08 18:02:00,69.0,54.0,30.13,ENE,65,0.0,1.0,58,0.00,,,0.00,,2013-03-08 23:02:00,
2013-03-08 18:12:00,69.0,54.0,30.13,ENE,65,0.0,1.0,58,0.00,,,0.00,,2013-03-08 23:12:00,
2013-03-08 18:22:00,68.0,54.0,30.13,ENE,66,0.0,1.0,60,0.00,,,0.00,,2013-03-08 23:22:00,
2013-03-08 18:32:00,68.0,54.0,30.13,ENE,67,0.0,1.0,61,0.00,,,0.00,,2013-03-08 23:32:00,
2013-03-08 18:42:00,68.0,54.0,30.13,ENE,67,0.0,1.0,61,0.00,,,0.00,,2013-03-08 23:42:00,
2013-03-08 18:53:00,67.0,54.0,30.14,ENE,67,0.0,1.0,62,0.00,,,0.00,,2013-03-08 23:53:00,
2013-03-08 19:02:00,66.0,53.0,30.14,ENE,67,0.0,0.0,63,0.00,,,0.00,,2013-03-09 00:02:00,
2013-03-08 19:12:00,66.0,53.0,30.14,ENE,67,0.0,0.0,63,0.00,,,0.00,,2013-03-09 00:12:00,
2013-03-08 19:22:00,66.0,54.0,30.14,ENE,67,0.0,0.0,65,0.00,,,0.00,,2013-03-09 00:22:00,
2013-03-08 19:32:00,65.0,54.0,30.15,ENE,67,0.0,0.0,67,0.00,,,0.00,,2013-03-09 00:32:00,
2013-03-08 19:42:00,65.0,54.0,30.15,ENE,67,0.0,0.0,67,0.00,,,0.00,,2013-03-09 00:42:00,
2013-03-08 19:52:00,65.0,54.0,30.15,ENE,67,0.0,0.0,68,0.00,,,0.00,,2013-03-09 00:52:00,
2013-03-08 20:02:00,65.0,54.0,30.16,ENE,67,0.0,0.0,68,0.00,,,0.00,,2013-03-09 01:02:00,
2013-03-08 20:12:00,65.0,55.0,30.16,ENE,67,0.0,0.0,69,0.00,,,0.00,,2013-03-09 01:12:00,
2013-03-08 20:22:00,65.0,55.0,30.16,ENE,67,0.0,0.0,69,0.00,,,0.00,,2013-03-09 01:22:00,
2013-03-08 20:32:00,64.0,54.0,30.15,ENE,67,0.0,0.0,70,0.00,,,0.00,,2013-03-09 01:32:00,
2013-03-08 20:42:00,64.0,54.0,30.15,ENE,67,0.0,0.0,70,0.00,,,0.00,,2013-03-09 01:42:00,
2013-03-08 20:52:00,64.0,53.0,30.16,ENE,67,0.0,0.0,68,0.00,,,0.00,,2013-03-09 01:52:00,
2013-03-08 21:01:00,64.0,53.0,30.17,ENE,67,0.0,0.0,67,0.00,,,0.00,,2013-03-09 02:01:00,
2013-03-08 21:11:00,64.0,53.0,30.17,ENE,67,0.0,0.0,67,0.00,,,0.00,,2013-03-09 02:11:00,
2013-03-08 21:21:00,63.0,53.0,30.18,ENE,67,0.0,0.0,70,0.00,,,0.00,,2013-03-09 02:21:00,
2013-03-08 21:31:00,62.0,53.0,30.18,ENE,67,0.0,0.0,72,0.00,,,0.00,,2013-03-09 02:31:00,
2013-03-08 21:41:00,61.0,53.0,30.18,ENE,66,0.0,0.0,74,0.00,,,0.00,,2013-03-09 02:41:00,
2013-03-08 21:51:00,61.0,53.0,30.18,ENE,66,0.0,0.0,74,0.00,,,0.00,,2013-03-09 02:51:00,
2013-03-08 22:01:00,60.0,52.0,30.18,ENE,67,0.0,0.0,74,0.00,,,0.00,,2013-03-09 03:01:00,
2013-03-08 22:11:00,60.0,52.0,30.18,ENE,67,0.0,0.0,74,0.00,,,0.00,,2013-03-09 03:11:00,
2013-03-08 22:22:00,60.0,52.0,30.18,ENE,67,0.0,0.0,75,0.00,,,0.00,,2013-03-09 03:22:00,
2013-03-08 22:31:00,60.0,52.0,30.17,ENE,66,0.0,0.0,75,0.00,,,0.00,,2013-03-09 03:31:00,
2013-03-08 22:41:00,60.0,52.0,30.17,ENE,66,0.0,0.0,75,0.00,,,0.00,,2013-03-09 03:41:00,
2013-03-08 22:52:00,59.0,51.0,30.17,ENE,67,0.0,0.0,75,0.00,,,0.00,,2013-03-09 03:52:00,
2013-03-08 23:01:00,59.0,51.0,30.17,ENE,66,0.0,0.0,75,0.00,,,0.00,,2013-03-09 04:01:00,
2013-03-08 23:11:00,59.0,51.0,30.17,ENE,66,0.0,0.0,75,0.00,,,0.00,,2013-03-09 04:11:00,
2013-03-08 23:22:00,59.0,50.0,30.17,ENE,67,0.0,0.0,73,0.00,,,0.00,,2013-03-09 04:22:00,
2013-03-08 23:32:00,60.0,50.0,30.17,ENE,67,0.0,0.0,70,0.00,,,0.00,,2013-03-09 04:32:00,
2013-03-08 23:42:00,60.0,50.0,30.17,ENE,67,0.0,0.0,70,0.00,,,0.00,,2013-03-09 04:42:00,
2013-03-08 23:52:00,60.0,49.0,30.16,ENE,67,0.0,0.0,68,0.00,,,0.00,,2013-03-09 04:52:00,